Regional Weather Roundup
Issued by NWS

Home | Current Version | Previous Version | Text Only | Print | Product List | Glossary On
Versions: 1 2 3 4 5 6 7 8 9 10 11 12 13 14 15 16 17 18 19 20 21 22 23 24 25 26 27 28 29 30 31 32 33 34 35 36 37 38 39 40 41 42 43 44 45 46 47 48 49 50
000
ASUS45 KCYS 261710
RWRWY

WYOMING REGIONAL WEATHER ROUNDUP
NATIONAL WEATHER SERVICE CHEYENNE WY
1100 AM MDT TUE MAY 26 2015

NOTE:  "FAIR" INDICATES FEW OR NO CLOUDS BELOW 12,000 FEET
WITH NO SIGNIFICANT WEATHER AND/OR OBSTRUCTIONS TO VISIBILITY.

WYZ001-261800-
YELLOWSTONE NATIONAL PARK

CITY           SKY/WX    TMP DP  RH WIND       PRES   REMARKS
LK YELLOWSTONE   N/A     44  39  82 CALM      30.12S
W YELLOWSTONE  NOT AVBL

$$
WYZ002>013-054>058-071-098>099-261800-
NORTHERN WYOMING

CITY           SKY/WX    TMP DP  RH WIND       PRES   REMARKS
JACKSON        PTSUNNY   54  45  71 S6        30.07F
CODY           CLOUDY    57  43  58 S3        29.99S
GREYBULL       FAIR      66  45  46 S9        29.95S
WORLAND        FAIR      62  49  62 CALM      29.96S
SHERIDAN       FAIR      66  50  56 VRB5      29.95S
BUFFALO        FAIR      61  47  59 E5        29.99S
GILLETTE       FAIR      62  47  57 SW5       29.98R
HULETT         FAIR      63  52  67 SW14      30.00S
NEWCASTLE      CLOUDY    59  46  63 S9        30.02S

$$
WYZ014>020-022>026-101>103-261800-
CENTRAL WYOMING

CITY           SKY/WX    TMP DP  RH WIND       PRES   REMARKS
BIG PINEY      CLOUDY    53  40  61 S5        30.10F
PINEDALE       CLOUDY    52  39  62 S5        30.11S
DUBOIS         LGT RAIN  52  36  54 N7        30.06F
LANDER         FAIR      62  46  55 E10       29.99F
RIVERTON       FAIR      60  43  53 VRB3        N/A
CASPER         FAIR      62  46  55 SW13      30.01F
DOUGLAS        FAIR      62  44  51 VRB3      30.01F

$$
WYZ021-027>030-104>119-261800-
SOUTHERN WYOMING

CITY           SKY/WX    TMP DP  RH WIND       PRES   REMARKS
EVANSTON       CLOUDY    49  42  77 N3        30.12F
KEMMERER       FAIR      54  37  54 SW5       30.12S
FORT BRIDGER   CLOUDY    52  43  71 W10       30.16R
ROCK SPRINGS   FAIR      56  43  61 SW10      30.10S
DIXON          PTSUNNY   57  44  61 SW8       30.13S
RAWLINS        FAIR      58  40  51 W14       30.09S
SARATOGA       FAIR      55  37  50 SW9G17    30.11F
LARAMIE        CLOUDY    53  37  54 SW8       30.09S
CHEYENNE       CLOUDY    58  38  47 NW6       30.06F
TORRINGTON     PTSUNNY   61  52  72 VRB6      30.01S
PINE BLUFFS    PTSUNNY   59  46  63 CALM      30.05S

$$



USA.gov is the U.S. government's official web portal to all federal, state and local government web resources and services.